[TLELIST] Archives

 

[list_settings.list_name] Current TLEs

May 31st 2022 PST

HST 1 20580U 90037B 22150.79389586 .00001927 00000-0 10316-3 0 9992 2 20580 28.4705 285.8146 0002394 198.2015 280.8694 15.10528662563547 ISS (ZARYA) 1 25544U 98067A 22151.19075692 .00009695 00000-0 17891-3 0 9998 2 25544 51.6440 60.7704 0004901 176.6871 348.1605 15.49791068342541 CXO 1 25867U 99040B 22152.17793216 .00000461 00000-0 00000-0 0 9999 2 25867 45.8104 236.3230 8806881 233.4623 359.7591 0.37804255 11738 ____________________________________________________________________ These 2-Line ...Continue Reading

[list_settings.list_name] Current TLEs

May 30th 2022 PST

HST 1 20580U 90037B 22149.80220240 .00002384 00000-0 13019-3 0 9994 2 20580 28.4706 292.3852 0002445 187.2285 288.4139 15.10525455563397 ISS (ZARYA) 1 25544U 98067A 22150.22269604 .00010260 00000-0 18896-3 0 9995 2 25544 51.6434 65.5640 0004925 174.2080 346.0623 15.49773853342390 CXO 1 25867U 99040B 22152.17793216 .00000461 00000-0 00000-0 0 9999 2 25867 45.8104 236.3230 8806881 233.4623 359.7591 0.37804255 11738 ____________________________________________________________________ These 2-Line ...Continue Reading

[list_settings.list_name] Current TLEs

May 29th 2022 PST

HST 1 20580U 90037B 22148.81693703 .00002336 00000-0 12734-3 0 9992 2 20580 28.4703 298.9127 0002499 176.4028 330.8476 15.10520065563247 ISS (ZARYA) 1 25544U 98067A 22149.31741728 .00010644 00000-0 19585-3 0 9997 2 25544 51.6430 70.0470 0004963 170.2843 335.9698 15.49756215342250 CXO 1 25867U 99040B 22149.53333064 .00000362 00000-0 00000+0 0 9995 2 25867 45.8806 236.5110 8803665 233.3424 359.7834 0.37806625 22882 ____________________________________________________________________ These 2-Line ...Continue Reading

[list_settings.list_name] Current TLEs

May 28th 2022 PST

HST 1 20580U 90037B 22148.15996817 .00002764 00000-0 15269-3 0 9992 2 20580 28.4703 303.2653 0002533 169.4383 358.2136 15.10518003563411 ISS (ZARYA) 1 25544U 98067A 22148.40740920 .00010473 00000-0 19297-3 0 9999 2 25544 51.6429 74.5550 0005073 168.2550 297.6312 15.49735460342112 CXO 1 25867U 99040B 22149.53333064 .00000362 00000-0 00000+0 0 9995 2 25867 45.8806 236.5110 8803665 233.3424 359.7834 0.37806625 22882 ____________________________________________________________________ These 2-Line ...Continue Reading

[list_settings.list_name] Current TLEs

May 27th 2022 PST

HST 1 20580U 90037B 22146.89705441 .00003015 00000-0 16754-3 0 9992 2 20580 28.4702 311.6323 0002624 155.8364 330.6516 15.10511822562952 ISS (ZARYA) 1 25544U 98067A 22147.37443609 .00010526 00000-0 19405-3 0 9998 2 25544 51.6424 79.6696 0005055 163.7502 295.3690 15.49713533341953 CXO 1 25867U 99040B 22149.53333064 .00000362 00000-0 00000+0 0 9995 2 25867 45.8806 236.5110 8803665 233.3424 359.7834 0.37806625 22882 ____________________________________________________________________ These 2-Line ...Continue Reading

[list_settings.list_name] Current TLEs

May 26th 2022 PST

HST 1 20580U 90037B 22145.83533168 .00003402 00000-0 19047-3 0 9998 2 20580 28.4703 318.6673 0002674 145.0225 316.5399 15.10506502562793 ISS (ZARYA) 1 25544U 98067A 22146.28913208 .00010641 00000-0 19625-3 0 9996 2 25544 51.6432 85.0432 0005079 158.8310 1.4584 15.49689966341780 CXO 1 25867U 99040B 22146.88774635 .00000356 00000-0 00000+0 0 9996 2 25867 45.9556 236.7033 8798982 233.2229 359.6635 0.37806133 22879 ____________________________________________________________________ These 2-Line ...Continue Reading

[list_settings.list_name] Current TLEs

May 25th 2022 PST

HST 1 20580U 90037B 22144.84358394 .00003429 00000-0 19211-3 0 9996 2 20580 28.4703 325.2376 0002762 135.1306 322.7952 15.10499948562648 ISS (ZARYA) 1 25544U 98067A 22145.42967688 .00010935 00000-0 20155-3 0 9998 2 25544 51.6435 89.2993 0005214 156.6938 245.6671 15.49672700341657 CXO 1 25867U 99040B 22146.88774635 .00000356 00000-0 00000+0 0 9996 2 25867 45.9556 236.7033 8798982 233.2229 359.6635 0.37806133 22879 ____________________________________________________________________ These 2-Line ...Continue Reading

[list_settings.list_name] Current TLEs

May 24th 2022 PST

HST 1 20580U 90037B 22143.92157412 .00003732 00000-0 21008-3 0 9996 2 20580 28.4705 331.3465 0002783 125.4461 348.8373 15.10494041562762 ISS (ZARYA) 1 25544U 98067A 22144.28804957 .00010966 00000-0 20228-3 0 9995 2 25544 51.6435 94.9540 0005191 152.1188 357.1533 15.49646925341476 CXO 1 25867U 99040B 22144.24561451 .00000482 00000-0 00000-0 0 9995 2 25867 46.0114 236.8620 8793021 233.1377 359.9837 0.37807001 11708 ____________________________________________________________________ These 2-Line ...Continue Reading

[list_settings.list_name] Current TLEs

May 23rd 2022 PST

HST 1 20580U 90037B 22142.86010450 .00004126 00000-0 23346-3 0 9993 2 20580 28.4706 338.3789 0002850 115.6598 335.1488 15.10486560562343 ISS (ZARYA) 1 25544U 98067A 22143.37738542 .00010371 00000-0 19191-3 0 9997 2 25544 51.6438 99.4639 0004967 147.2337 318.3670 15.49625671341330 CXO 1 25867U 99040B 22144.24561451 .00000482 00000-0 00000-0 0 9995 2 25867 46.0114 236.8620 8793021 233.1377 359.9837 0.37807001 11708 ____________________________________________________________________ These 2-Line ...Continue Reading

[list_settings.list_name] Current TLEs

May 22nd 2022 PST

HST 1 20580U 90037B 22141.94369389 .00004431 00000-0 25153-3 0 9996 2 20580 28.4709 344.4504 0002863 106.6146 31.1067 15.10480026562204 ISS (ZARYA) 1 25544U 98067A 22142.41742970 .00010590 00000-0 19593-3 0 9990 2 25544 51.6434 104.2167 0005050 142.6721 4.1704 15.49604431341189 CXO 1 25867U 99040B 22144.24561451 .00000482 00000-0 00000-0 0 9995 2 25867 46.0114 236.8620 8793021 233.1377 359.9837 0.37807001 11708 ____________________________________________________________________ These 2-Line ...Continue Reading
  • This mailing list is a public mailing list - anyone may join or leave, at any time.
  • This mailing list is announce-only.

International Space Station (ISS) / Hubble Space Telescope (HST) / Chandra X-Ray Observatory Orbital Data via EMAIL

Privacy Policy:

Private list